User: anonymous   Login
Location: ??????
(36.0418°N, 43.6351°E)
Time: 16:09:29
(UTC+00:00)
Language:

Cosmos 883 Rocket - Orbit

View from above orbital plane
View from above orbital plane
View from above satellite
View from above satellite

Ground track
Ground track

The orbit data is extracted from the following two-line orbital elements,

1  9613U 76122B   21213.44246493  .00000013  00000-0 -24461-5 0  9999
2  9613  82.9540 113.5035 0031040  29.3620 330.9273 13.77477296242645
Epoch (UTC): 01 August 2021 10:37:08
Eccentricity: 0.0031040
inclination: 82.9540°
perigee height: 950 km
apogee height: 995 km
right ascension of ascending node: 113.5035°
argument of perigee: 29.3620°
revolutions per day: 13.77477296
mean anomaly at epoch: 330.9273°
orbit number at epoch: 24264

The dashed part of the orbit path shows where the satellite is in the earth's shadow,  

DLR